SL-12 R/B(2)

Last updated on Sun Aug 09 2026 00:02:08 GMT+0000 (Coordinated Universal Time)

1 15772U 85042D 26220.52025519 .00000055 00000+0 46108-4 0 9994 2 15772 71.1084 126.9509 0037173 250.5052 282.6746 14.22015392135976
UTC large
Height (km)
Speed (km/s)
/
Latitude / Longitude
Inclination (degrees)
Orbital Period (minutes)
Azimuth
Elevation
Range (km)
Doppler Factor

Next 0 passes for location: London (51.5072 / 0.1276)

No passes found over London.
SL-12 R/B(2)